This is the latest recevied weather packets stored in our database for station/object SP9SOY-2. If no packets are shown the sender has not sent any weather packets the latest 10 day(s).
| Time | Temp. | Humidity | Pressure | Rain* | Wind** | Luminosity | Snow |
|---|---|---|---|---|---|---|---|
| 1777732035 | 18.89° C | 15% | - | - | - | 825 W/m² | - |
| 1777730229 | 18.89° C | 15% | - | - | - | 1116 W/m² | - |
| 1777728429 | 18.89° C | 15% | - | - | - | 1044 W/m² | - |
| 1777726631 | 18.89° C | 15% | - | - | - | 972 W/m² | - |
| 1777724833 | 18.33° C | 15% | - | - | - | 972 W/m² | - |
| 1777721234 | 18.89° C | 15% | - | - | - | 1044 W/m² | - |
| 1777719434 | 18.33° C | 15% | - | - | - | 1116 W/m² | - |
| 1777717629 | 18.33° C | 15% | - | - | - | 1060 W/m² | - |
| 1777715841 | 17.78° C | 18% | - | - | - | 1004 W/m² | - |
| 1777714034 | 17.78° C | 18% | - | - | - | 972 W/m² | - |
| 1777712232 | 17.22° C | 18% | - | - | - | 940 W/m² | - |
| 1777710433 | 16.67° C | 19% | - | - | - | 750 W/m² | - |
| 1777708631 | 15.56° C | 19% | - | - | - | 560 W/m² | - |
| 1777706833 | 15° C | 19% | - | - | - | 451 W/m² | - |
| 1777705032 | 14.44° C | 22% | - | - | - | 342 W/m² | - |
| 1777703232 | 13.89° C | 22% | - | - | - | 224 W/m² | - |
| 1777701431 | 13.89° C | 22% | - | - | - | 106 W/m² | - |
| 1777699631 | 13.33° C | 25% | - | - | - | 53 W/m² | - |
| 1777672633 | 11.67° C | 21% | - | - | - | 0 W/m² | - |
| 1777669042 | 12.78° C | 18% | - | - | - | 0 W/m² | - |
| 1777667231 | 13.33° C | 17% | - | - | - | 0 W/m² | - |
| 1777665429 | 13.89° C | 17% | - | - | - | 0 W/m² | - |
| 1777663630 | 14.44° C | 17% | - | - | - | 0 W/m² | - |
| 1777661830 | 14.44° C | 17% | - | - | - | 0 W/m² | - |
| 1777660035 | 15° C | 17% | - | - | - | 12 W/m² | - |
* Rain since midnight (hover to see other rain measurements)
** Current wind speed in m/s (hover to see current wind gust speed)